EW1470 Fairford UK current weather conditions

sailwx.info

Wind from 046

Air temperature 23.9° C
Dewpoint 20.8° C

Last reported at 2020-Aug-14 17:01 UTC.
Time now 2020-Aug-14 17:27 UTC

Location: N 43°44' E 007°23'.
View on Google Maps.

See reports from other nearby stations

  
Tides and Currents Weather Stations Pressure Air Temp Water Temp Dewpoint Dewpoint Depression Visibility Wind Speed Wind Dir Waves Ship Positions
date/time (UTC)wind fromknots sea level pressurealtimeterstation pressurevisibilityair tempwater tempwave heightnotes
2020-Aug-14 17:01 046 23.9
2020-Aug-14 16:46 041 25.0
2020-Aug-14 16:32 145 25.0
2020-Aug-14 16:17 200 25.0
2020-Aug-14 16:01 126 25.0
2020-Aug-14 15:46 160 25.0
2020-Aug-14 15:31 108 25.0
2020-Aug-14 15:17 155 24.4
2020-Aug-14 15:01 124 23.9
2020-Aug-14 14:46 121 24.4
2020-Aug-14 14:30 134 25.0
2020-Aug-14 14:16 128 25.0
2020-Aug-14 14:01 131 24.4
2020-Aug-14 13:46 139 25.0
2020-Aug-14 13:30 155 25.0
2020-Aug-14 13:16 181 25.6
2020-Aug-14 13:00 169 25.6
2020-Aug-14 12:45 125 25.6
2020-Aug-14 12:30 160 25.6
2020-Aug-14 12:15 120 26.1
2020-Aug-14 12:01 103 26.7
2020-Aug-14 11:45 171 26.1
2020-Aug-14 11:30 117 26.1
2020-Aug-14 11:16 145 25.6
2020-Aug-14 11:00 118 26.1
2020-Aug-14 10:46 134 25.6
2020-Aug-14 10:31 163 25.6
2020-Aug-14 10:15 097 26.1
2020-Aug-14 10:01 099 26.1
2020-Aug-14 09:45 139 25.6
2020-Aug-14 09:30 143 25.6
2020-Aug-14 09:16 169 25.6
2020-Aug-14 09:00 120 25.6
2020-Aug-14 08:45 143 25.6
2020-Aug-14 08:30 122 25.6
2020-Aug-14 08:15 114 25.6
2020-Aug-14 08:00 124 25.6
2020-Aug-14 07:45 114 25.6
2020-Aug-14 07:30 139 25.0
2020-Aug-14 07:15 099 25.0
2020-Aug-14 07:00 131 24.4
2020-Aug-14 06:45 098 23.9
2020-Aug-14 06:31 110 22.8
2020-Aug-14 06:16 127 22.8
2020-Aug-14 06:02 159 22.8
2020-Aug-14 05:46 139 22.2
2020-Aug-14 05:32 242 21.7
2020-Aug-14 05:16 248 0 21.1
2020-Aug-14 05:01
2020-Aug-14 04:46
2020-Aug-14 04:30
2020-Aug-14 04:16
2020-Aug-14 04:00 232 21.1
2020-Aug-14 03:46 230 21.7
2020-Aug-14 03:31 243 21.7
2020-Aug-14 03:15 241 21.7
2020-Aug-14 03:00 247 21.7
2020-Aug-14 02:46 245 21.7
2020-Aug-14 02:30 232 21.7
2020-Aug-14 02:15 232 21.7
2020-Aug-14 02:01 232 21.7
2020-Aug-14 01:45 232 21.7
2020-Aug-14 01:30 232 21.7
2020-Aug-14 01:16 232 21.7
2020-Aug-14 01:00 232 21.7
2020-Aug-14 00:45 232 21.7
2020-Aug-14 00:15 232 22.2
2020-Aug-14 00:01 232 22.2
2020-Aug-13 23:00 233 22.2
2020-Aug-13 22:45 233 21.7
2020-Aug-13 22:30 155 21.7
2020-Aug-13 22:15 158 22.2
2020-Aug-13 22:00 158 22.2
2020-Aug-13 21:45 158 22.2
2020-Aug-13 21:33 158 22.2
2020-Aug-13 21:17 158 22.2
2020-Aug-13 21:01 158 22.2
2020-Aug-13 20:47 156 22.2
2020-Aug-13 20:31 156 22.2
2020-Aug-13 20:16 156 22.2
2020-Aug-13 20:02 156 22.8
2020-Aug-13 19:47 157 22.8
2020-Aug-13 19:31 256 22.8
2020-Aug-13 19:16 255 22.8
2020-Aug-13 19:01 253 22.8
2020-Aug-13 18:47 027 23.3
2020-Aug-13 18:31 028 22.8
2020-Aug-13 18:18 031 23.3
2020-Aug-13 18:01 032 23.3
2020-Aug-13 17:46 079 23.9
2020-Aug-13 17:31 173 23.9
2020-Aug-13 17:16 359 23.9
2020-Aug-13 17:00 252 24.4
2020-Aug-13 16:46 156 25.0
2020-Aug-13 16:31 173 0 gusting 9 25.0
2020-Aug-13 16:16 049 1 gusting 9 25.0
2020-Aug-13 16:01 354 1 gusting 9 26.1
2020-Aug-13 15:46 146 1 gusting 9 25.6
2020-Aug-13 15:31 212 0 gusting 9 26.1
2020-Aug-13 15:15 122 2 gusting 9 26.1
2020-Aug-13 15:00 181 1 gusting 9 26.1
2020-Aug-13 14:45 129 1 gusting 9 26.1
2020-Aug-13 14:31 134 1 gusting 9 26.1
2020-Aug-13 14:15 134 1 gusting 9 26.1
2020-Aug-13 14:01 156 2 gusting 9 26.7
2020-Aug-13 13:45 129 1 gusting 9 26.7
2020-Aug-13 13:30 153 3 gusting 9 26.7
2020-Aug-13 13:15 046 3 gusting 9 26.7
2020-Aug-13 13:00 124 1 gusting 7 26.7
2020-Aug-13 12:45 102 2 gusting 6 26.7
2020-Aug-13 12:30 077 2 gusting 5 26.1
2020-Aug-13 12:16 236 25.6
2020-Aug-13 12:00 134 0 gusting 5 26.1
2020-Aug-13 11:45 115 1 gusting 5 26.1
2020-Aug-13 11:30 136 24.4
2020-Aug-13 11:15 047 1 gusting 3 24.4
2020-Aug-13 11:00 143 1 gusting 5 25.0
2020-Aug-13 10:45 084 1 gusting 7 25.6
2020-Aug-13 10:30 039 1 gusting 8 24.4
2020-Aug-13 10:15 022 1 gusting 8 25.0
2020-Aug-13 10:00 014 4 gusting 12 23.9
2020-Aug-13 09:45 025 1 gusting 9 23.9
2020-Aug-13 09:30 051 0 gusting 6 23.3
2020-Aug-13 09:15 041 0 gusting 6 23.3
2020-Aug-13 09:00 034 0 gusting 4 23.3
2020-Aug-13 08:45 071 0 gusting 2 23.3
2020-Aug-13 08:30 147 0 gusting 2 23.9
2020-Aug-13 08:15 134 0 gusting 3 24.4
2020-Aug-13 08:00 134 1 gusting 3 25.6
2020-Aug-13 07:48 274 0 gusting 5 26.1
2020-Aug-13 07:32 335 2 gusting 5 25.0
2020-Aug-13 07:16 328 25.0
2020-Aug-13 07:01 291 2 gusting 6 24.4
2020-Aug-13 06:46 264 0 gusting 4 25.0
2020-Aug-13 06:31 236 24.4
2020-Aug-13 06:01 201 24.4
2020-Aug-13 05:46 093 0 gusting 3 24.4
2020-Aug-13 05:31 103 0 23.3
2020-Aug-13 05:15
2020-Aug-13 05:01
2020-Aug-13 04:47
2020-Aug-13 04:31 242 23.9
2020-Aug-13 04:16 259 24.4
2020-Aug-13 04:00 293 0 gusting 1 24.4
2020-Aug-13 03:45 323 0 gusting 3 23.9
2020-Aug-13 03:30 321 2 gusting 7 23.3
2020-Aug-13 03:15 274 2 gusting 4 23.3
2020-Aug-13 03:01 301 2 gusting 6 23.3
2020-Aug-13 02:45 008 1 gusting 2 23.9
2020-Aug-13 02:30 018 0 gusting 2 23.9
2020-Aug-13 02:16 017 2 gusting 3 23.9
2020-Aug-13 02:01 352 1 gusting 3 23.3
2020-Aug-13 01:45 326 23.3
2020-Aug-13 01:30 328 0 gusting 3 23.3
2020-Aug-13 01:15 252 23.3
2020-Aug-13 01:00 020 22.8
2020-Aug-13 00:45 020 22.2
2020-Aug-13 00:30 018 1 gusting 3 22.2
2020-Aug-13 00:15 008 0 gusting 2 22.2
2020-Aug-13 00:00 020 22.8
2020-Aug-12 23:45 022 2 gusting 4 22.8
2020-Aug-12 23:30 022 22.8
2020-Aug-12 23:15 006 22.8
2020-Aug-12 23:00 017 1 gusting 2 23.3
2020-Aug-12 22:45 020 23.3
2020-Aug-12 22:30 330 1 gusting 5 23.3
2020-Aug-12 22:15 351 3 gusting 6 23.3
2020-Aug-12 22:01 020 0 gusting 7 22.8
2020-Aug-12 21:47 020 2 gusting 4 22.8
2020-Aug-12 21:31 020 0 gusting 2 22.8
2020-Aug-12 21:16 016 0 gusting 3 22.8
2020-Aug-12 21:02 257 0 gusting 2 23.3
2020-Aug-12 20:46 359 0 gusting 2 23.3
2020-Aug-12 20:31 016 24.4
2020-Aug-12 20:16 022 4 gusting 6 24.4
2020-Aug-12 20:01 012 0 gusting 1 24.4
2020-Aug-12 19:46 349 24.4
2020-Aug-12 19:31 186 25.0
2020-Aug-12 19:16 248 1 gusting 7 25.0
2020-Aug-12 19:03 285 2 gusting 7 24.4
2020-Aug-12 18:46 311 2 gusting 4 24.4
2020-Aug-12 18:31 011 1 gusting 4 23.9
2020-Aug-12 18:01 211 24.4
2020-Aug-12 17:45 016 24.4
2020-Aug-12 17:31 018 23.9
2020-Aug-12 17:16 163 23.9
2020-Aug-12 17:01 165 23.9